Regional Weather Roundup
Issued by NWS

Home | Current Version | Previous Version | Graphics & Text | Print | Product List | Glossary On
Versions: 1 2 3 4 5 6 7 8 9 10 11 12 13 14 15 16 17 18 19 20 21 22 23 24 25 26 27 28 29 30 31 32 33 34 35 36 37 38 39 40 41 42 43 44 45 46 47 48 49 50
000
ASUS43 KMPX 270701
RWRMN
WEATHER ROUNDUP FOR MINNESOTA
NATIONAL WEATHER SERVICE TWIN CITIES/CHANHASSEN MN
200 AM CDT TUE JUN 27 2017


NOTE: "FAIR" INDICATES FEW OR NO CLOUDS BELOW 12,000 FEET WITH NO
SIGNIFICANT WEATHER AND/OR OBSTRUCTIONS TO VISIBILITY. N/A MEANS
CURRENT SKY AND/OR WEATHER CONDITIONS ARE NOT AVAILABLE.

MNZ060>063-068>070-270800-
   Twin Cities Metro

CITY           SKY/WX    TMP DP  RH WIND       PRES   REMARKS
TWIN CITIES    CLEAR     58  47  66 CALM      30.10F
ST PAUL        CLEAR     53  48  83 CALM      30.11S
CRYSTAL        CLEAR     51  45  79 CALM      30.09S
BLAINE         CLEAR     52  46  82 CALM      30.09F
LAKEVILLE      CLEAR     54  46  76 SW5       30.11S
EDEN PRAIRIE   CLEAR     56  47  71 CALM      30.10S
SOUTH ST PAUL  CLEAR     56  46  67 CALM      30.10S
LAKE ELMO      FAIR      50  48  93 CALM      30.10F
$$
MNZ001>005-007-008-013>017-022>024-027-028-270800-
   Northwest Minnesota

CITY           SKY/WX    TMP DP  RH WIND       PRES   REMARKS
BEMIDJI        CLEAR     49  44  82 CALM      30.05S
HALLOCK        CLEAR     45  41  87 SE8       29.97F
ROSEAU         CLEAR     48  43  81 S7        29.99F
WARROAD        PTCLDY    52  46  82 S5        30.00F
CROOKSTON      CLEAR     48  43  81 SE8       30.02F
FOSSTON        CLEAR     45  41  87 S7        30.05S
DETROIT LAKES  CLEAR     52  46  82 S5        30.07F
MOORHEAD       CLEAR     57  39  51 S7        30.05F
PARK RAPIDS    CLEAR     51  40  65 CALM      30.06F
MAHNOMEN       FAIR      51  42  71 S7        30.04F
$$
MNZ006-009>011-018-025>026-270800-
   North Central Minnesota

CITY           SKY/WX    TMP DP  RH WIND       PRES   REMARKS
BAUDETTE       CLEAR     49  45  86 S3        30.00F
FLAG ISLAND    CLEAR     59  45  58 SW5       29.97F
INTL FALLS     CLEAR     42  40  92 CALM      30.00F
WASKISH        CLEAR     48  46  93 CALM      30.03S
BIG FORK       CLEAR     43  43 100 CALM      30.04F FOG
LONGVILLE      CLEAR     45  45 100 CALM      30.06F
GRAND RAPIDS   CLEAR     49  45  86 CALM      30.07F
CRANE LAKE     CLEAR     43  43 100 CALM      30.03S
ORR            CLEAR     46  43  87 CALM      30.01S
COOK           CLEAR     45  45 100 CALM      30.04S
WALKER         FAIR      47  42  82 SW3       30.06S
$$
MNZ012-019>021-037-270800-
   Northeast Minnesota

CITY           SKY/WX    TMP DP  RH WIND       PRES   REMARKS
DULUTH         CLEAR     53  44  71 W9        30.03F
ELY            CLEAR     46  46 100 CALM      30.02F
HIBBING        CLEAR     40  40 100 CALM      30.04F
EVELETH        CLEAR     45  42  90 CALM      30.04F
DULUTH HARBOR  CLEAR     55  50  82 SW8       30.04S
TWO HARBORS    CLEAR     54  48  82 NW5       30.01S
SILVER BAY     CLEAR     50  45  81 CALM      30.00S
G MARAIS ARPRT CLEAR     45  39  81 W3        30.02S
$$
MNZ029>031-032-039>041-046>048-054>057-064-270800-
   West Central Minnesota

CITY           SKY/WX    TMP DP  RH WIND       PRES   REMARKS
FERGUS FALLS   CLEAR     54  45  71 S5        30.06S
WHEATON        CLEAR     54  43  66 S8        30.10S
MORRIS         CLEAR     54  43  66 S5        30.09S
ALEXANDRIA     CLEAR     52  41  66 SW7       30.10F
ELBOW LAKE     FAIR      50  43  77 S7        30.09S
WADENA         CLEAR     46  41  81 CALM      30.07F
GLENWOOD       CLEAR     52  45  76 SW3       30.10F
BENSON         CLEAR     48  43  81 SW3       30.11F
ORTONVILLE     CLEAR     55  41  58 S5        30.10S
MADISON        CLEAR     54  45  71 S3        30.11S
WILLMAR        FAIR      52  45  76 CALM      30.12F
$$
MNZ033>034-036-042>043-049>051-058-059-270800-
   Central Minnesota

CITY           SKY/WX    TMP DP  RH WIND       PRES   REMARKS
ST CLOUD       CLEAR     46  45  96 CALM      30.09F
SAUK CENTRE    FAIR      47  42  85 CALM      30.10F
PAYNESVILLE    CLEAR     46  46 100 W3        30.11S
AITKIN           N/A     41  39  93 CALM      30.06S FOG
PINE RIVER     CLEAR     45  43  93 CALM      30.10F
BRAINERD       CLEAR     45  43  93 S3        30.08F
STAPLES        CLEAR     46  41  81 CALM      30.08F
LONG PRAIRIE   FAIR      48  45  87 S5        30.10S
LITTLE FALLS   CLEAR     45  41  87 CALM      30.09S
LITCHFIELD     CLEAR     55  46  71 CALM      30.11F
BUFFALO        CLEAR     53  46  76 CALM      30.11F
MAPLE LAKE     CLEAR     49  47  94 CALM      30.11S
HUTCHINSON     CLEAR     50  46  87 CALM      30.12F
$$
MNZ037-044-045-052-053-270800-
   East Central Minnesota

CITY           SKY/WX    TMP DP  RH WIND       PRES   REMARKS
PRINCETON      CLEAR     45  43  93 CALM      30.09F
MORA           CLEAR     46  45  93 CALM      30.10S
CAMBRIDGE      CLEAR     52  43  71 CALM      30.07S
RUSH CITY      MOCLDY    48  45  87 CALM      30.08S
MOOSE LAKE     CLEAR     46  43  87 S3        30.04F
HINCKLEY       FAIR      46  46 100 CALM      30.07F
CLOQUET        CLEAR     52  41  66 W6        30.05S
MCGREGOR       CLEAR     50  45  81 W5        30.07S
$$
MNZ071>073-080-081-089-090-097-098-270800-
   Southwest Minnesota

CITY           SKY/WX    TMP DP  RH WIND       PRES   REMARKS
MONTEVIDEO     CLEAR     52  41  66 CALM      30.11F
GRANITE FALLS  CLEAR     51  45  82 S6        30.13F
CANBY          CLEAR     49  43  80 CALM      30.12F
MARSHALL       CLEAR     51  44  77 SW9       30.12F
REDWOOD FALLS  CLEAR     54  42  64 S5        30.12F
OLIVIA         CLEAR     52  43  71 CALM      30.11F
PIPESTONE      CLEAR     54  39  58 SE5       30.13F
WINDOM         CLEAR     48  43  81 CALM      30.14S
WORTHINGTON    CLEAR     50  44  80 CALM      30.15F
JACKSON        CLEAR     50  45  81 CALM      30.15S
TRACY          CLEAR     54  44  68 SW7       30.13F
SLAYTON        CLEAR     52  42  68 S3        30.15F
$$
MNZ065>067-074>077-082>085-091>093-270800-
   South Central Minnesota

CITY           SKY/WX    TMP DP  RH WIND       PRES   REMARKS
MANKATO        CLEAR     57  43  59 S3        30.12F
NEW ULM        CLEAR     48  43  81 CALM      30.12S
ST JAMES       CLEAR     50  45  81 CALM      30.14S
FAIRMONT       CLEAR     52  47  83 CALM      30.14S
GLENCOE        CLEAR     52  49  89 CALM      30.10F
FARIBAULT      PTCLDY    50  46  87 CALM      30.12F
OWATONNA       CLEAR     52  45  76 CALM      30.13S
WASECA         CLEAR     50  45  81 CALM      30.14S
ALBERT LEA     CLEAR     50  48  93 CALM      30.13F
$$
MNZ078>079-086>088-094>096-270800-
   Southeast Minnesota

CITY           SKY/WX    TMP DP  RH WIND       PRES   REMARKS
ROCHESTER      CLEAR     50  46  86 SW6       30.13F
RED WING       CLEAR     48  46  93 CALM      30.10S
STANTON        CLEAR     51  47  87 S3        30.10F
DODGE CENTER   CLEAR     50  45  81 SW3       30.13S
WINONA         CLEAR     48  46  93 NW3       30.12S
AUSTIN         CLEAR     50  46  87 CALM      30.13S
PRESTON        CLEAR     48  44  85 SW6       30.14S
$$
ABBREVIATIONS USED IN REMARKS
   TC - TEMPERATURES IN CELSIUS
  WCI - WIND CHILL INDEX
   HX - HEAT INDEX
  VSB - VISIBILITY
$$




USA.gov is the U.S. government's official web portal to all federal, state and local government web resources and services.